Showing default

ASTRA 2G, 40364

Orbit data source: Space-Track

ASTRA 2G, 40364 is a payload satellite owned by SES (LU) in GEO that was launched on Sat, 27 Dec 2014 UTC via a PROTON-M/BRIZ-M launch vehicle from the Tyuratam Missile And Space Complex (TTMTR). Payload-class satellites include a variety of spacecraft equipped with specific instruments for various scientific and technological missions. These include communications satellites like Starlink; space stations such as the ISS; scientific satellites like the Hubble; Earth observation satellites from companies like Planet Labs, Umbra, and HawkEye 360; GPS; miniature CubeSats for education and research; and military/defense satellites.

Not visible in the next 10 days
Identifier
40364, 2014-089A
Orbit
GEO
Country
Flag of LULU / SES
Related business
Manufacturer
Airbus/Toulouse
Mission
Operational Commercial Communications
Bus & Motor
EUROSTAR 3000, R-4D?
Mass
6,002 kg wet, ~3,000 kg dry
Launch date (UTC)
2014-12-27 (11 years ago)
Launch vehicle
PROTON-M/BRIZ-M
Launch site
Tyuratam Missile And Space Complex (TTMTR)
Object type
Payload
Rocket body
Debris
Shape & HBR
Box + 2 Pan, 19.9 m
Radar Cross Section
50.725 m², Large (>1 m²)

Expand to show TLE details & history
Last TLE update: 2 days ago

TLE from 2 days ago
0 ASTRA 2G
1 40364U 14089A   26171.32626139  .00000145  00000-0  00000+0 0  9997
2 40364   0.0464   6.7607 0004720  60.8751 346.5362  1.00269481 41992
Epoch: 2026-06-20T07:49Z
TLE epoch observation values (Epoch: 2026-06-20T07:49:48.984Z)
Latitude
0.04973°
Longitude
28.17496°
Altitude
35,767.325 km
Speed
3.076 km/s
True Right ascension
03h 36m 41s
True Declination
0° 02' 59"
Sunlit
Object was in daylight at epoch
Visualization orbit readout
Latitude
Unknown
Longitude
Unknown
Altitude
Unknown
Speed
Unknown
Apparent Right ascension
Unknown
Apparent Declination
Unknown
Sunlit
N/A
Visualization observer readout
Local Sidereal Time
21:42:59
Azimuth
Unknown
Elevation
Unknown
Doppler factor
Unknown
Orbital elements
Apogee altitude
35,808.214 km
Perigee altitude
35,768.409 km
Semi-major axis
42,166.448 km
Eccentricity
0.00047
Inclination
0.0464°
RAAN
6.7607°
Arg. of periapsis
60.8751°
True anomaly
346.5236°
Mean anomaly
346.5362°
Eccentric anomaly
346.5299°
Mean motion
0.25066 °/min
Orbital period
1,436.18 mins
BSTAR
0
Loading maneuver chart data...
Computing Atmospheric mass density...
Loading historical data...
Loading historical data...
Loading historical data...
Loading historical data...
Loading historical data...
Loading historical data...
Loading historical data...
Other satellites on launch #89 in the year 2014 (2014-12-27 UTC)

Documentation

Showing up to 5 results
|